Weather History for KBKW - September, 2013

Change the Weather History Date:

Wednesday, September 18, 2013

  Actual Average Record
Temperature  
Mean Temperature 60 °F 62 °F  
Max Temperature 69 °F 72 °F 90 °F (1931)
Min Temperature 51 °F 53 °F 29 °F (1937)
Degree Days  
Heating Degree Days 5 4  
Month to date heating degree days 42 41  
Since 1 July heating degree days 62 62  
Cooling Degree Days 0 1  
Month to date cooling degree days 53 47  
Year to date cooling degree days 596 540  
Growing Degree Days 10 (Base 50)    
Moisture  
Dew Point 53 °F    
Average Humidity 77    
Maximum Humidity 90    
Minimum Humidity 63    
Precipitation  
Precipitation T in 0.11 in 1.90 in (2012)
Month to date precipitation 0.79 1.86  
Year to date precipitation 30.76 31.52  
Snow  
Snow 0.00 in - - ()
Month to date snowfall 0.0  
Since 1 September snowfall 0.0  
Snow Depth 0.00 in    
Sea Level Pressure  
Sea Level Pressure 30.22 in    
Wind  
Wind Speed 6 mph (South)    
Max Wind Speed 13 mph    
Max Gust Speed 22 mph    
Visibility 10 miles    
Events Rain    
T = Trace of Precipitation, MM = Missing Value Source: NWS Daily Summary

Daily Weather History Graph

Daily Weather History Graph

Search for Another Location

Airport or City:

Trip Planner

Search our weather history database for the weather conditions in past years. The results will help you decide how hot, cold, wet, or windy it might be!

Date:

Astronomy

Sep. 18, 2013 Rise Set
Actual Time 7:09 AM EDT 7:27 PM EDT
Civil Twilight 6:42 AM EDT 7:53 PM EDT
Nautical Twilight 6:12 AM EDT 8:24 PM EDT
Astronomical Twilight 5:40 AM EDT 8:55 PM EDT
Moon 6:49 PM EDT (9/18) 6:10 AM EDT (9/18)
Length of Visible Light 13h 10m
Length of Day
12h 18m
Waxing Gibbous, 99% of the Moon is Illuminated
Sep 18
Waxing Gibbous
Sep 19
Full
Sep 26
Last Quarter
Oct 4
New
Oct 11
First Quarter

Hourly Weather History & Observations

Time (EDT) Temp. Dew Point Humidity Pressure Visibility Wind Dir Wind Speed Gust Speed Precip Events Conditions
12:51 AM 55.0 °F 46.9 °F 74% 30.25 in 10.0 mi SE 10.4 mph 19.6 mph N/A   Clear
1:51 AM 54.0 °F 46.9 °F 77% 30.25 in 10.0 mi SSE 11.5 mph - N/A   Clear
2:51 AM 53.1 °F 46.9 °F 80% 30.23 in 10.0 mi SE 10.4 mph - N/A   Clear
3:51 AM 53.1 °F 46.0 °F 77% 30.22 in 10.0 mi Variable 6.9 mph - N/A   Clear
4:51 AM 52.0 °F 46.0 °F 80% 30.22 in 10.0 mi SE 9.2 mph - N/A   Partly Cloudy
5:51 AM 52.0 °F 46.0 °F 80% 30.22 in 10.0 mi SE 8.1 mph - N/A   Overcast
6:51 AM 52.0 °F 46.0 °F 80% 30.25 in 10.0 mi SE 9.2 mph - N/A   Scattered Clouds
7:51 AM 52.0 °F 46.0 °F 80% 30.26 in 10.0 mi SE 8.1 mph - N/A   Partly Cloudy
8:51 AM 54.0 °F 46.9 °F 77% 30.26 in 10.0 mi SE 8.1 mph - N/A   Clear
9:51 AM 57.0 °F 48.0 °F 72% 30.27 in 10.0 mi SSE 6.9 mph - N/A   Mostly Cloudy
10:51 AM 60.1 °F 50.0 °F 69% 30.25 in 10.0 mi SE 8.1 mph - N/A   Scattered Clouds
11:39 AM 62.6 °F 51.8 °F 68% 30.29 in 10.0 mi Variable 4.6 mph - N/A   Mostly Cloudy
11:51 AM 63.0 °F 51.1 °F 65% 30.24 in 10.0 mi ESE 6.9 mph - N/A   Overcast
12:51 PM 66.0 °F 54.0 °F 65% 30.22 in 10.0 mi South 6.9 mph - N/A   Mostly Cloudy
1:21 PM 69.8 °F 55.4 °F 60% 30.25 in 10.0 mi Variable 5.8 mph - N/A   Scattered Clouds
1:35 PM 69.8 °F 55.4 °F 60% 30.25 in 10.0 mi Variable 5.8 mph - N/A   Mostly Cloudy
1:51 PM 68.0 °F 55.0 °F 63% 30.20 in 10.0 mi West 4.6 mph - N/A   Overcast
2:37 PM 66.2 °F 55.4 °F 68% 30.24 in 10.0 mi WSW 8.1 mph - N/A   Overcast
2:51 PM 66.0 °F 55.9 °F 70% 30.19 in 10.0 mi WSW 6.9 mph - N/A   Overcast
3:00 PM 66.2 °F 55.4 °F 68% 30.24 in 10.0 mi West 8.1 mph - N/A   Overcast
3:12 PM 64.4 °F 55.4 °F 73% 30.24 in 10.0 mi West 8.1 mph - 0.00 in Rain Light Rain
3:51 PM 62.1 °F 57.0 °F 84% 30.19 in 10.0 mi WSW 4.6 mph - 0.00 in   Overcast
4:37 PM 62.6 °F 57.2 °F 82% 30.22 in 10.0 mi Calm Calm - 0.00 in   Overcast
4:51 PM 63.0 °F 57.9 °F 84% 30.19 in 10.0 mi Calm Calm - 0.00 in   Overcast
5:51 PM 63.0 °F 57.9 °F 84% 30.18 in 10.0 mi Calm Calm - N/A   Overcast
6:04 PM 62.6 °F 57.2 °F 82% 30.22 in 9.0 mi SSE 3.5 mph - N/A   Overcast
6:23 PM 62.6 °F 57.2 °F 82% 30.22 in 6.0 mi Calm Calm - N/A   Haze
6:51 PM 62.1 °F 57.0 °F 84% 30.18 in 9.0 mi South 4.6 mph - N/A   Overcast
7:38 PM 60.8 °F 57.2 °F 88% 30.19 in 10.0 mi SSE 6.9 mph - N/A   Overcast
7:51 PM 61.0 °F 57.0 °F 87% 30.17 in 10.0 mi South 3.5 mph - N/A   Overcast
8:29 PM 60.8 °F 57.2 °F 88% 30.20 in 10.0 mi SSE 4.6 mph - N/A   Overcast
8:51 PM 61.0 °F 57.0 °F 87% 30.17 in 10.0 mi South 5.8 mph - N/A   Overcast
9:51 PM 61.0 °F 57.0 °F 87% 30.17 in 10.0 mi SSW 4.6 mph - N/A   Mostly Cloudy
10:26 PM 60.8 °F 57.2 °F 88% 30.22 in 10.0 mi SSW 4.6 mph - N/A   Overcast
10:51 PM 61.0 °F 57.9 °F 90% 30.17 in 10.0 mi SSW 3.5 mph - N/A   Overcast
11:17 PM 60.8 °F 57.2 °F 88% 30.22 in 10.0 mi SW 5.8 mph - N/A   Overcast
11:51 PM 61.0 °F 57.9 °F 90% 30.16 in 10.0 mi SSW 6.9 mph - N/A   Overcast